EW8081 Weather Reports


Display with metric or nautical units.
time (UTC)temp
F
wind
direction
speed
MPH
gust
MPH
rain 1hr
in
rain 24hr
in
rain mn
in
humidity
%
barometer
mb
20260831031526 72 32 5.0 12.0 0.00 0.01 0.01 65 1028.0
20260831030019 73 75 4.0 11.0 0.00 0.01 0.01 63 1028.2
20260831024526 72 49 6.0 11.0 0.00 0.01 0.01 63 1028.3
20260831023017 72 33 2.0 10.0 0.00 0.01 0.01 63 1028.5
20260831021524 71 78 4.0 9.0 0.00 0.01 0.01 64 1028.8
20260831020015 71 57 3.0 11.0 0.00 0.01 0.01 64 1028.9
20260831014515 70 58 4.0 9.0 0.00 0.01 0.01 63 1029.3
20260831013022 72 73 2.0 8.0 0.00 0.01 0.01 61 1029.5
20260831011514 73 75 2.0 8.0 0.00 0.01 0.01 58 1029.6
20260831010112 73 161 2.0 7.0 0.00 0.01 0.01 59 1029.6
20260831004505 72 133 1.0 7.0 0.00 0.01 0.01 60 1029.8
20260831003004 72 143 1.0 5.0 0.00 0.01 0.01 61 1029.9
20260831001502 72 111 1.0 5.0 0.00 0.01 0.01 61 1029.8
20260830234556 70 138 0.0 4.0 0.00 0.01 0.01 66 1029.8
20260830233103 69 139 1.0 4.0 0.00 0.01 0.01 69 1029.7
20260830231555 67 139 1.0 3.0 0.00 0.01 0.01 72 1029.8
20260830230046 65 10 1.0 4.0 0.00 0.01 0.01 82 1029.9
20260830224600 62 10 0.0 3.0 0.00 0.01 0.01 88 1029.9
20260830223036 59 10 0.0 4.0 0.00 0.01 0.01 92 1029.8
20260830221534 58 303 1.0 2.0 0.00 0.01 0.01 93 1029.7
20260830220037 58 305 1.0 3.0 0.00 0.01 0.01 94 1029.6
20260830214539 55 304 1.0 4.0 0.00 0.01 0.01 94 1029.3
20260830213027 55 303 1.0 3.0 0.00 0.01 0.01 93 1029.2
20260830211531 53 303 1.0 4.0 0.00 0.01 0.01 94 1029.1
20260830210031 53 291 3.0 4.0 0.00 0.01 0.01 94 1029.0
20260830204529 52 269 3.0 7.0 0.00 0.01 0.01 93 1028.9
20260830203026 52 268 3.0 7.0 0.00 0.01 0.01 93 1028.8
20260830201523 52 269 3.0 8.0 0.00 0.01 0.01 94 1028.5
20260830200021 52 274 3.0 7.0 0.00 0.01 0.01 93 1028.6
20260830194523 52 244 2.0 5.0 0.00 0.01 0.01 93 1028.4
20260830193020 53 252 3.0 4.0 0.00 0.01 0.01 93 1028.3
20260830191522 53 259 1.0 2.0 0.00 0.01 0.01 93 1028.2
20260830190018 53 259 0.0 3.0 0.00 0.01 0.01 93 1027.9
20260830184517 53 257 0.0 3.0 0.00 0.01 0.01 93 1028.0
20260830183016 53 257 1.0 2.0 0.00 0.01 0.01 93 1028.0
20260830181514 53 256 0.0 2.0 0.00 0.01 0.01 93 1028.1
20260830180011 52 256 1.0 3.0 0.00 0.01 0.01 92 1028.2
20260830174511 53 256 0.0 3.0 0.01 0.01 0.01 93 1028.4
20260830173008 53 256 1.0 2.0 0.01 0.01 0.01 92 1028.4
20260830171506 54 256 1.0 3.0 0.01 0.01 0.01 92 1028.4
20260830170006 54 256 1.0 3.0 0.01 0.01 0.01 92 1028.6
20260830164504 54 256 1.0 3.0 0.00 0.00 0.00 92 1028.6
20260830163004 54 256 1.0 3.0 0.00 0.00 0.00 92 1028.8
20260830161502 54 255 2.0 4.0 0.00 0.00 0.00 92 1028.8
20260830160059 54 232 1.0 3.0 0.00 0.00 0.00 92 1028.9
20260830154558 54 232 1.0 2.0 0.00 0.00 0.00 92 1028.9
20260830153054 53 232 0.0 2.0 0.00 0.00 0.00 92 1029.0
20260830151557 53 232 0.0 2.0 0.00 0.00 0.00 91 1029.1
20260830150056 53 232 0.0 1.0 0.00 0.00 0.00 91 1029.1
20260830144552 53 232 0.0 1.0 0.00 0.00 0.00 91 1029.3
20260830143107 53 232 0.0 1.0 0.00 0.00 0.00 91 1029.3
20260830141548 53 232 0.0 1.0 0.00 0.00 0.00 90 1029.2
20260830140050 53 232 0.0 3.0 0.00 0.00 0.00 90 1029.3
20260830134547 53 232 0.0 3.0 0.00 0.00 0.00 90 1029.3
20260830133045 53 232 1.0 3.0 0.00 0.00 0.00 90 1029.4
20260830131544 53 230 1.0 4.0 0.00 0.00 0.00 89 1029.3
20260830130101 53 228 1.0 3.0 0.00 0.00 0.00 89 1029.4
20260830124543 53 232 2.0 4.0 0.00 0.00 0.00 88 1029.3
20260830123058 54 272 1.0 3.0 0.00 0.00 0.00 88 1029.2
20260830121543 54 5 0.0 2.0 0.00 0.00 0.00 88 1029.0
20260830120042 54 5 0.0 2.0 0.00 0.00 0.00 88 1028.9
20260830114549 55 5 0.0 3.0 0.00 0.00 0.00 88 1028.9
20260830113040 55 5 0.0 2.0 0.00 0.00 0.00 88 1029.0
20260830111540 54 5 0.0 2.0 0.00 0.00 0.00 87 1029.0
20260830110040 55 5 0.0 2.0 0.00 0.00 0.00 88 1029.0
20260830104548 55 5 0.0 3.0 0.00 0.00 0.00 88 1028.9
20260830103040 55 22 0.0 2.0 0.00 0.00 0.00 88 1028.6
20260830101541 55 23 1.0 3.0 0.00 0.00 0.00 86 1028.5
20260830100038 55 23 0.0 2.0 0.00 0.00 0.00 86 1028.6
20260830094540 56 75 0.0 0.0 0.00 0.00 0.00 85 1028.3
20260830093037 56 75 0.0 1.0 0.00 0.00 0.00 83 1028.2
20260830091539 57 75 0.0 1.0 0.00 0.00 0.00 83 1028.3
20260830090037 58 75 0.0 2.0 0.00 0.00 0.00 82 1028.2
20260830084539 59 75 0.0 4.0 0.00 0.00 0.00 81 1028.1
20260830083034 59 62 0.0 3.0 0.00 0.00 0.00 81 1027.8
20260830081546 59 35 0.0 5.0 0.00 0.00 0.00 79 1027.9
20260830080034 59 83 1.0 6.0 0.00 0.00 0.00 77 1027.8
20260830074535 60 72 1.0 4.0 0.00 0.00 0.00 75 1027.6
20260830073032 61 95 1.0 3.0 0.00 0.00 0.00 74 1027.6
20260830071544 62 47 0.0 3.0 0.00 0.00 0.00 71 1027.6
20260830070037 65 60 0.0 4.0 0.00 0.00 0.00 66 1027.4
20260830064631 68 64 1.0 4.0 0.00 0.00 0.00 58 1027.3
20260830063037 71 70 2.0 5.0 0.00 0.00 0.00 55 1027.5
20260830061530 75 68 2.0 6.0 0.00 0.00 0.00 49 1027.4
20260830060029 77 149 0.0 5.0 0.00 0.00 0.00 47 1027.5
20260830054532 75 65 1.0 4.0 0.00 0.00 0.00 50 1027.6
20260830053024 75 136 0.0 3.0 0.00 0.00 0.00 50 1027.7
20260830051523 73 70 0.0 6.0 0.00 0.00 0.00 52 1027.5
20260830050023 74 117 1.0 4.0 0.00 0.00 0.00 53 1027.6
20260830044521 72 73 0.0 5.0 0.00 0.00 0.00 55 1027.7
20260830043018 73 97 1.0 4.0 0.00 0.00 0.00 53 1027.6
20260830041522 74 64 0.0 6.0 0.00 0.00 0.00 54 1027.7
20260830040016 75 159 0.0 3.0 0.00 0.00 0.00 53 1027.9
20260830034517 72 141 1.0 6.0 0.00 0.00 0.00 56 1028.0
20260830033011 72 37 2.0 6.0 0.00 0.00 0.00 59 1028.0